Location: DeLan Observatory
(46.9670°N, 70.5500°W)
Time: 13:26:46
(UTC-04:00)

OTV 5 (USA 277) - Visible Passes

Search period start: 20 October 2019 00:00
Search period end: 30 October 2019 00:00
Orbit: 310 x 324 km, 54.5° (Epoch: 17 October)

Date Brightness Start Highest point End Pass type
(mag) Time Alt. Az. Time Alt. Az. Time Alt. Az.
20 Oct ? 05:37:48 26° SSW 05:37:48 26° SSW 05:39:40 10° SSE visible
21 Oct ? 05:52:34 11° SSW 05:52:34 11° SSW 05:52:47 10° SSW visible
28 Oct ? 19:10:06 10° SSW 19:11:24 20° S 19:11:24 20° S visible
29 Oct ? 19:24:12 10° SW 19:25:53 33° SW 19:25:53 33° SW visible
